Location: *
(34.8620°S, 39.3380°E)
Time: 23:43:26
(UTC+00:00)

YAOGAN 1 - Pass Details

Date: 09 December 2021
Orbit: 618 x 620 km, 97.9° (Epoch: 22 January)

Event Time Altitude Azimuth Distance (km) Brightness Sun altitude
Rises 16:56:34 0° 167° (SSE) 2,929 6.3 -5.8°
Reaches altitude 10° 16:58:47 10° 166° (SSE) 2,015 5.5 -6.2°
Maximum altitude 17:03:10 82° 78° (ENE) 638 2.6 -6.9°
Drops below altitude 10° 17:07:30 10° 350° (N) 1,987 4.9 -7.7°
Sets 17:09:41 0° 349° (NNW) 2,885 5.7 -8.0°
